Weather History for Bend, OR

Change the Weather History Date:

Monday, December 16, 2013

  Actual Average (KRDM) Record (KRDM)
Temperature  
Mean Temperature 37 °F 30 °F  
Max Temperature 51 °F 40 °F 63 °F (1980)
Min Temperature 23 °F 20 °F -12 °F (2008)
Degree Days  
Heating Degree Days 28 35  
Month to date heating degree days 546  
Since 1 July heating degree days 2320  
Moisture  
Dew Point 24 °F    
Average Humidity 68    
Maximum Humidity 93    
Minimum Humidity 35    
Precipitation  
Precipitation 0.00 in 0.03 in 0.45 in (1982)
Month to date precipitation 0.62  
Year to date precipitation 8.36  
Sea Level Pressure  
Sea Level Pressure 30.38 in    
Wind  
Wind Speed 5 mph (SSE)    
Max Wind Speed 10 mph    
Max Gust Speed -    
Visibility 10 miles    
Events      
T = Trace of Precipitation, MM = Missing Value Source: NWS Daily Summary

Daily Weather History Graph

Daily Weather History Graph

Search for Another Location

Airport:

Trip Planner

Search our weather history database for the weather conditions in past years. The results will help you decide how hot, cold, wet, or windy it might be!

Date:

Astronomy

Dec. 16, 2013 Rise Set
Actual Time 7:33 AM PST 4:27 PM PST
Civil Twilight 7:00 AM PST 5:00 PM PST
Nautical Twilight 6:24 AM PST 5:37 PM PST
Astronomical Twilight 5:48 AM PST 6:12 PM PST
Moon 4:24 PM PST (12/16) 6:44 AM PST (12/16)
Length of Visible Light 9h 59m
Length of Day
8h 53m
Full, 100% of the Moon is Illuminated
Dec 16
Full
Dec 17
Full
Dec 25
Last Quarter
Jan 1
New
Jan 7
First Quarter

Hourly Weather History & Observations

Time (PST) Temp. Windchill Dew Point Humidity Pressure Visibility Wind Dir Wind Speed Gust Speed Precip Events Conditions
12:15 AM 32.0 °F 24.8 °F 28.4 °F 87% 30.40 in 10.0 mi SSE 8.1 mph - N/A   Clear
12:35 AM 32.0 °F 26.4 °F 28.4 °F 87% 30.39 in 10.0 mi SE 5.8 mph - N/A   Clear
12:55 AM 32.0 °F 26.4 °F 28.4 °F 87% 30.40 in 10.0 mi SSE 5.8 mph - N/A   Clear
1:15 AM 32.0 °F 24.8 °F 28.4 °F 87% 30.39 in 10.0 mi SE 8.1 mph - N/A   Clear
1:35 AM 32.0 °F 25.6 °F 28.4 °F 87% 30.39 in 10.0 mi SE 6.9 mph - N/A   Clear
1:55 AM 28.4 °F - 26.6 °F 93% 30.40 in 10.0 mi Calm Calm - N/A   Clear
2:15 AM 26.6 °F 22.6 °F 24.8 °F 93% 30.40 in 10.0 mi ESE 3.5 mph - N/A   Clear
2:35 AM 26.6 °F - 24.8 °F 93% 30.40 in 10.0 mi Calm Calm - N/A   Clear
2:55 AM 26.6 °F 19.1 °F 24.8 °F 93% 30.40 in 10.0 mi ESE 6.9 mph - N/A   Clear
3:15 AM 26.6 °F 21.2 °F 23.0 °F 86% 30.41 in 10.0 mi SE 4.6 mph - N/A   Clear
3:35 AM 24.8 °F 20.5 °F 23.0 °F 93% 30.41 in 10.0 mi SSE 3.5 mph - N/A   Clear
3:55 AM 24.8 °F 17.9 °F 23.0 °F 93% 30.41 in 10.0 mi SE 5.8 mph - N/A   Clear
4:15 AM 24.8 °F 17.9 °F 23.0 °F 93% 30.41 in 10.0 mi SE 5.8 mph - N/A   Clear
4:35 AM 26.6 °F 21.2 °F 23.0 °F 86% 30.41 in 10.0 mi South 4.6 mph - N/A   Clear
4:55 AM 26.6 °F 21.2 °F 23.0 °F 86% 30.40 in 10.0 mi SSE 4.6 mph - N/A   Clear
5:15 AM 23.0 °F 17.0 °F 21.2 °F 93% 30.40 in 10.0 mi SSE 4.6 mph - N/A   Clear
5:35 AM 23.0 °F 15.8 °F 21.2 °F 93% 30.40 in 10.0 mi SSE 5.8 mph - N/A   Clear
5:55 AM 23.0 °F 17.0 °F 21.2 °F 93% 30.40 in 10.0 mi SSE 4.6 mph - N/A   Clear
6:15 AM 23.0 °F 18.4 °F 21.2 °F 93% 30.41 in 10.0 mi ESE 3.5 mph - N/A   Clear
6:35 AM 23.0 °F 17.0 °F 19.4 °F 86% 30.41 in 10.0 mi SSE 4.6 mph - N/A   Clear
6:55 AM 23.0 °F 15.8 °F 19.4 °F 86% 30.41 in 10.0 mi SSE 5.8 mph - N/A   Clear
7:15 AM 24.8 °F 14.6 °F 21.2 °F 86% 30.41 in 10.0 mi SE 10.4 mph - N/A   Clear
7:35 AM 24.8 °F 16.9 °F 21.2 °F 86% 30.42 in 10.0 mi SE 6.9 mph - N/A   Clear
7:55 AM 24.8 °F 16.1 °F 21.2 °F 86% 30.42 in 10.0 mi South 8.1 mph - N/A   Clear
8:15 AM 28.4 °F 24.6 °F 23.0 °F 80% 30.42 in 10.0 mi SE 3.5 mph - N/A   Clear
8:35 AM 30.2 °F 26.7 °F 21.2 °F 69% 30.43 in 10.0 mi SSE 3.5 mph - N/A   Clear
8:55 AM 32.0 °F 27.5 °F 21.2 °F 64% 30.42 in 10.0 mi SE 4.6 mph - N/A   Clear
9:15 AM 32.0 °F 27.5 °F 23.0 °F 69% 30.42 in 10.0 mi ESE 4.6 mph - N/A   Clear
9:35 AM 32.0 °F - 21.2 °F 64% 30.43 in 10.0 mi Calm Calm - N/A   Clear
9:55 AM 33.8 °F - 23.0 °F 65% 30.43 in 10.0 mi Calm Calm - N/A   Clear
10:15 AM 35.6 °F 31.7 °F 23.0 °F 60% 30.43 in 10.0 mi SE 4.6 mph - N/A   Clear
10:35 AM 37.4 °F 33.8 °F 24.8 °F 60% 30.43 in 10.0 mi SE 4.6 mph - N/A   Clear
10:55 AM 39.2 °F 35.0 °F 23.0 °F 52% 30.43 in 10.0 mi SE 5.8 mph - N/A   Clear
11:15 AM 41.0 °F 37.1 °F 23.0 °F 49% 30.42 in 10.0 mi SE 5.8 mph - N/A   Clear
11:35 AM 41.0 °F 39.0 °F 24.8 °F 53% 30.41 in 10.0 mi SE 3.5 mph - N/A   Clear
11:55 AM 44.6 °F - 24.8 °F 46% 30.41 in 10.0 mi Calm Calm - N/A   Clear
12:15 PM 46.4 °F - 24.8 °F 43% 30.40 in 10.0 mi Calm Calm - N/A   Clear
12:35 PM 48.2 °F - 24.8 °F 40% 30.39 in 10.0 mi South 3.5 mph - N/A   Clear
12:55 PM 48.2 °F - 24.8 °F 40% 30.39 in 10.0 mi Calm Calm - N/A   Clear
1:15 PM 48.2 °F - 23.0 °F 37% 30.38 in 10.0 mi Calm Calm - N/A   Clear
1:35 PM 50.0 °F - 23.0 °F 35% 30.37 in 10.0 mi Calm Calm - N/A   Clear
1:55 PM 50.0 °F - 23.0 °F 35% 30.37 in 10.0 mi Calm Calm - N/A   Clear
2:15 PM 51.8 °F - 24.8 °F 35% 30.36 in 10.0 mi Calm Calm - N/A   Clear
2:35 PM 51.8 °F - 24.8 °F 35% 30.37 in 10.0 mi Calm Calm - N/A   Clear
2:55 PM 51.8 °F - 24.8 °F 35% 30.36 in 7.0 mi Calm Calm - N/A   Clear
3:15 PM 50.0 °F - 24.8 °F 37% 30.37 in 10.0 mi Calm Calm - N/A   Clear
3:35 PM 50.0 °F - 24.8 °F 37% 30.37 in 10.0 mi Calm Calm - N/A   Clear
3:55 PM 51.8 °F - 24.8 °F 35% 30.36 in 10.0 mi Calm Calm - N/A   Clear
4:15 PM 48.2 °F - 26.6 °F 43% 30.36 in 10.0 mi SSE 4.6 mph - N/A   Clear
4:35 PM 42.8 °F 40.1 °F 26.6 °F 53% 30.35 in 10.0 mi South 4.6 mph - N/A   Clear
4:55 PM 39.2 °F 35.0 °F 26.6 °F 61% 30.35 in 10.0 mi South 5.8 mph - N/A   Clear
5:15 PM 39.2 °F 34.2 °F 26.6 °F 61% 30.35 in 10.0 mi South 6.9 mph - N/A   Clear
5:35 PM 39.2 °F 34.2 °F 26.6 °F 61% 30.34 in 10.0 mi SSE 6.9 mph - N/A   Clear
5:55 PM 39.2 °F 35.0 °F 26.6 °F 61% 30.33 in 10.0 mi SE 5.8 mph - N/A   Clear
6:15 PM 35.6 °F - 26.6 °F 70% 30.34 in 10.0 mi Calm Calm - N/A   Clear
6:35 PM 37.4 °F 31.4 °F 26.6 °F 65% 30.34 in 10.0 mi ESE 8.1 mph - N/A   Clear
6:55 PM 37.4 °F 33.8 °F 26.6 °F 65% 30.33 in 10.0 mi SE 4.6 mph - N/A   Clear
7:15 PM 32.0 °F 27.5 °F 26.6 °F 80% 30.33 in 10.0 mi South 4.6 mph - N/A   Clear
7:35 PM 35.6 °F 30.7 °F 26.6 °F 70% 30.34 in 10.0 mi SSE 5.8 mph - N/A   Clear
7:55 PM 33.8 °F 28.6 °F 26.6 °F 75% 30.34 in 10.0 mi SSE 5.8 mph - N/A   Clear
8:15 PM 33.8 °F 29.6 °F 26.6 °F 75% 30.34 in 10.0 mi SSE 4.6 mph - N/A   Clear
8:35 PM 32.0 °F - 24.8 °F 75% 30.33 in 10.0 mi Calm Calm - N/A   Clear
8:55 PM 33.8 °F 27.7 °F 24.8 °F 70% 30.33 in 10.0 mi South 6.9 mph - N/A   Clear
9:15 PM 32.0 °F 25.6 °F 24.8 °F 75% 30.33 in 10.0 mi SSE 6.9 mph - N/A   Clear
9:55 PM 32.0 °F 27.5 °F 24.8 °F 75% 30.33 in 10.0 mi SSE 4.6 mph - N/A   Clear
10:15 PM 32.0 °F 26.4 °F 24.8 °F 75% 30.33 in 10.0 mi SE 5.8 mph - N/A   Clear
10:35 PM 32.0 °F 27.5 °F 24.8 °F 75% 30.33 in 10.0 mi SSE 4.6 mph - N/A   Clear
10:55 PM 33.8 °F 27.0 °F 23.0 °F 65% 30.33 in 10.0 mi SSE 8.1 mph - N/A   Clear
11:15 PM 35.6 °F 29.2 °F 23.0 °F 60% 30.32 in 10.0 mi SE 8.1 mph - N/A   Clear
11:35 PM 37.4 °F 31.4 °F 23.0 °F 56% 30.32 in 10.0 mi SE 8.1 mph - N/A   Clear
11:55 PM 33.8 °F 30.8 °F 23.0 °F 65% 30.31 in 10.0 mi ESE 3.5 mph - N/A   Clear